When you browse on this site, cookies collect data to enhance your experience and personalize the content and advertising you see.
Visit our Privacy Policy to learn more. By continuing to use the site, you agree to this use of cookies and data.
  • In Österreich
  • Länderverzeichnis
  • Für 7 Tage
  • Wassertemperatur
  • Wetterkarte
  • News
  • Widgets
  • user-avatar
    Anmelden

    Stündliche Wetter Prince George

    Heute, 15 Dezember, Sonntag

    Zeit Temperatur Niederschläge Wind Luftdruck Luftfeuchtigkeit
    00:00 -10°C° 0 mm 1 m/S 701 mmHg 97%
    01:00 -10°C° 0 mm 1 m/S 701 mmHg 97%
    02:00 -10°C° 0 mm 1 m/S 701 mmHg 97%
    03:00 -11°C° 0 mm 1 m/S 701 mmHg 96%
    04:00 -11°C° 0 mm 1 m/S 701 mmHg 96%
    05:00 -11°C° 0 mm 1 m/S 701 mmHg 96%
    06:00 -12°C° 0 mm 1 m/S 701 mmHg 96%
    07:00 -12°C° 0 mm 1 m/S 701 mmHg 96%
    08:00 -12°C° 0 mm 1 m/S 701 mmHg 96%
    09:00 -11°C° 0 mm 0 m/S 701 mmHg 95%
    10:00 -11°C° 0 mm 0 m/S 701 mmHg 95%
    11:00 -9°C° 0 mm 0 m/S 701 mmHg 93%
    12:00 -8°C° 0 mm 1 m/S 701 mmHg 91%
    13:00 -7°C° 0 mm 1 m/S 701 mmHg 89%
    14:00 -8°C° 0 mm 0 m/S 701 mmHg 92%
    15:00 -10°C° 0 mm 0 m/S 701 mmHg 94%
    16:00 -11°C° 0 mm 0 m/S 701 mmHg 96%
    17:00 -11°C° 0 mm 0 m/S 701 mmHg 96%
    18:00 -12°C° 0 mm 0 m/S 701 mmHg 96%
    19:00 -12°C° 0 mm 1 m/S 701 mmHg 96%
    20:00 -13°C° 0 mm 1 m/S 701 mmHg 96%
    21:00 -13°C° 0 mm 1 m/S 701 mmHg 96%
    22:00 -13°C° 0 mm 1 m/S 701 mmHg 96%
    23:00 -13°C° 0 mm 1 m/S 701 mmHg 96%

    Morgen, 16 Dezember, Montag

    Zeit Temperatur Niederschläge Wind Luftdruck Luftfeuchtigkeit
    00:00 -12°C° 0 mm 1 m/S 702 mmHg 95%
    01:00 -12°C° 0 mm 1 m/S 702 mmHg 95%
    02:00 -11°C° 0 mm 1 m/S 702 mmHg 94%
    03:00 -11°C° 0 mm 1 m/S 702 mmHg 94%
    04:00 -10°C° 0 mm 1 m/S 702 mmHg 93%
    05:00 -9°C° 0.5 mm 1 m/S 702 mmHg 94%
    06:00 -9°C° 0.5 mm 2 m/S 702 mmHg 94%
    07:00 -9°C° 0.5 mm 2 m/S 702 mmHg 95%
    08:00 -8°C° 0.5 mm 2 m/S 702 mmHg 94%
    09:00 -7°C° 0.5 mm 2 m/S 702 mmHg 92%
    10:00 -8°C° 0.5 mm 3 m/S 702 mmHg 91%
    11:00 -7°C° 0.2 mm 3 m/S 702 mmHg 90%
    12:00 -6°C° 0.2 mm 3 m/S 702 mmHg 88%
    13:00 -5°C° 0.2 mm 3 m/S 702 mmHg 86%
    14:00 -6°C° 0 mm 3 m/S 701 mmHg 86%
    15:00 -6°C° 0 mm 3 m/S 701 mmHg 87%
    16:00 -6°C° 0 mm 3 m/S 701 mmHg 87%
    17:00 -6°C° 0 mm 3 m/S 701 mmHg 86%
    18:00 -5°C° 0 mm 3 m/S 701 mmHg 86%
    19:00 -5°C° 0 mm 3 m/S 701 mmHg 85%
    20:00 -6°C° 0 mm 3 m/S 701 mmHg 85%
    21:00 -6°C° 0 mm 3 m/S 701 mmHg 85%
    22:00 -6°C° 0 mm 3 m/S 701 mmHg 84%
    23:00 -6°C° 0 mm 3 m/S 701 mmHg 84%

    übermorgen, 17 Dezember, Dienstag

    Zeit Temperatur Niederschläge Wind Luftdruck Luftfeuchtigkeit
    00:00 -6°C° 0 mm 3 m/S 701 mmHg 85%
    01:00 -6°C° 0 mm 3 m/S 700 mmHg 85%
    02:00 -6°C° 0 mm 3 m/S 700 mmHg 85%
    03:00 -6°C° 0 mm 3 m/S 699 mmHg 86%
    04:00 -6°C° 0 mm 3 m/S 699 mmHg 86%
    05:00 -6°C° 0 mm 3 m/S 698 mmHg 85%
    06:00 -7°C° 0 mm 4 m/S 698 mmHg 85%
    07:00 -5°C° 0 mm 4 m/S 697 mmHg 84%
    08:00 -5°C° 0 mm 4 m/S 697 mmHg 84%
    09:00 -5°C° 0 mm 4 m/S 696 mmHg 84%
    10:00 -4°C° 0 mm 4 m/S 696 mmHg 84%
    11:00 -4°C° 0 mm 4 m/S 695 mmHg 84%
    12:00 -4°C° 0 mm 5 m/S 694 mmHg 84%
    13:00 -4°C° 0 mm 5 m/S 693 mmHg 84%
    14:00 -4°C° 0 mm 5 m/S 693 mmHg 83%
    15:00 -4°C° 0 mm 5 m/S 693 mmHg 83%
    16:00 -4°C° 0 mm 5 m/S 693 mmHg 83%
    17:00 -4°C° 0 mm 5 m/S 693 mmHg 84%
    18:00 -3°C° 0 mm 4 m/S 693 mmHg 84%
    19:00 -3°C° 0 mm 4 m/S 693 mmHg 85%
    20:00 -3°C° 0.1 mm 4 m/S 693 mmHg 86%
    21:00 -2°C° 0.1 mm 3 m/S 693 mmHg 87%
    22:00 -2°C° 0.1 mm 3 m/S 693 mmHg 89%
    23:00 -2°C° 0.3 mm 3 m/S 693 mmHg 89%

    18 Dezember, Mittwoch

    Zeit Temperatur Niederschläge Wind Luftdruck Luftfeuchtigkeit
    00:00 -2°C° 0.3 mm 3 m/S 693 mmHg 90%
    01:00 -3°C° 0.3 mm 2 m/S 693 mmHg 91%
    02:00 -3°C° 0.1 mm 2 m/S 693 mmHg 91%
    03:00 -3°C° 0.1 mm 2 m/S 692 mmHg 91%
    04:00 -3°C° 0.1 mm 2 m/S 692 mmHg 91%
    05:00 -3°C° 0 mm 2 m/S 692 mmHg 91%
    06:00 -3°C° 0 mm 2 m/S 691 mmHg 90%
    07:00 -3°C° 0 mm 2 m/S 691 mmHg 90%
    08:00 -3°C° 0 mm 2 m/S 691 mmHg 90%
    09:00 -3°C° 0 mm 2 m/S 691 mmHg 89%
    10:00 -3°C° 0 mm 2 m/S 691 mmHg 89%
    11:00 -2°C° 0 mm 2 m/S 690 mmHg 89%
    12:00 -1°C° 0 mm 2 m/S 690 mmHg 89%
    13:00 -1°C° 0 mm 2 m/S 689 mmHg 89%
    14:00 -1°C° 0 mm 2 m/S 689 mmHg 90%
    15:00 -1°C° 0 mm 2 m/S 689 mmHg 91%
    16:00 -1°C° 0 mm 2 m/S 689 mmHg 92%
    17:00 -1°C° 0.1 mm 2 m/S 689 mmHg 92%
    18:00 -1°C° 0.1 mm 2 m/S 689 mmHg 92%
    19:00 -2°C° 0.1 mm 3 m/S 689 mmHg 92%
    20:00 -2°C° 0 mm 2 m/S 689 mmHg 91%
    21:00 -2°C° 0 mm 2 m/S 689 mmHg 91%
    22:00 -2°C° 0 mm 2 m/S 689 mmHg 91%
    23:00 -2°C° 0 mm 2 m/S 689 mmHg 90%

    19 Dezember, Donnerstag

    Zeit Temperatur Niederschläge Wind Luftdruck Luftfeuchtigkeit
    00:00 -3°C° 0 mm 2 m/S 689 mmHg 90%
    01:00 -3°C° 0 mm 2 m/S 690 mmHg 90%
    02:00 -3°C° 0 mm 2 m/S 690 mmHg 89%
    03:00 -4°C° 0 mm 2 m/S 690 mmHg 89%
    04:00 -4°C° 0 mm 2 m/S 690 mmHg 89%
    05:00 -4°C° 0 mm 2 m/S 690 mmHg 89%
    06:00 -4°C° 0 mm 2 m/S 690 mmHg 90%
    07:00 -4°C° 0 mm 2 m/S 690 mmHg 91%
    08:00 -4°C° 0 mm 2 m/S 690 mmHg 90%
    09:00 -4°C° 0 mm 2 m/S 691 mmHg 90%
    10:00 -4°C° 0 mm 2 m/S 691 mmHg 90%
    11:00 -3°C° 0 mm 2 m/S 691 mmHg 89%
    12:00 -2°C° 0 mm 2 m/S 691 mmHg 89%
    13:00 -2°C° 0 mm 2 m/S 691 mmHg 89%
    14:00 -3°C° 0 mm 2 m/S 691 mmHg 90%
    15:00 -4°C° 0 mm 2 m/S 691 mmHg 91%
    16:00 -2°C° 0 mm 1 m/S 691 mmHg 92%
    17:00 -3°C° 0 mm 1 m/S 692 mmHg 92%
    18:00 -5°C° 0 mm 2 m/S 692 mmHg 91%
    19:00 -5°C° 0 mm 2 m/S 692 mmHg 90%
    20:00 -5°C° 0 mm 2 m/S 693 mmHg 90%
    21:00 -5°C° 0 mm 2 m/S 693 mmHg 90%
    22:00 -5°C° 0 mm 2 m/S 693 mmHg 90%
    23:00 -6°C° 0 mm 2 m/S 693 mmHg 90%

    20 Dezember, Freitag

    Zeit Temperatur Niederschläge Wind Luftdruck Luftfeuchtigkeit
    00:00 -6°C° 0 mm 2 m/S 693 mmHg 90%
    01:00 -7°C° 0 mm 2 m/S 693 mmHg 90%
    02:00 -7°C° 0 mm 2 m/S 693 mmHg 91%
    03:00 -7°C° 0 mm 1 m/S 693 mmHg 91%
    04:00 -7°C° 0 mm 1 m/S 692 mmHg 92%
    05:00 -7°C° 0 mm 1 m/S 692 mmHg 92%
    06:00 -8°C° 0 mm 1 m/S 692 mmHg 92%
    07:00 -8°C° 0 mm 1 m/S 692 mmHg 92%
    08:00 -7°C° 0 mm 1 m/S 691 mmHg 92%
    09:00 -7°C° 0 mm 0 m/S 691 mmHg 91%
    10:00 -6°C° 0 mm 0 m/S 691 mmHg 91%
    11:00 -5°C° 0.1 mm 0 m/S 692 mmHg 92%
    12:00 -3°C° 0.1 mm 1 m/S 692 mmHg 93%
    13:00 -3°C° 0.1 mm 1 m/S 692 mmHg 94%
    14:00 -3°C° 0.1 mm 1 m/S 692 mmHg 95%
    15:00 -5°C° 0.1 mm 0 m/S 692 mmHg 96%
    16:00 -5°C° 0.1 mm 0 m/S 693 mmHg 96%
    17:00 -5°C° 0 mm 0 m/S 693 mmHg 96%
    18:00 -6°C° 0 mm 0 m/S 694 mmHg 96%
    19:00 -6°C° 0 mm 1 m/S 695 mmHg 96%
    20:00 -6°C° 0 mm 1 m/S 695 mmHg 96%
    21:00 -6°C° 0 mm 1 m/S 696 mmHg 95%
    22:00 -6°C° 0 mm 1 m/S 697 mmHg 95%
    23:00 -7°C° 0 mm 1 m/S 697 mmHg 95%
    Mehr zeigen